Hourly Data Report for September 29, 2017

All times are specified in Local Standard Time (LST). Add 1 hour to adjust for Daylight Saving Time where and when it is observed.

HALL BEACH A
NUNAVUT

68°46'33.000" N
81°14'33.000" W
9.10 m
2402354
71293
YUX

Related Data

No related data is available for this station

Download Data

Hourly Data (September 2017)
Hourly Data Report for September 29, 2017
Temp Definition
°C
Dew Point Temp Definition
°C
Rel Hum Definition
%
Wind Dir Definition
10's deg

Wind Spd Definition
km/h
Visibility Definition
km
Stn Press Definition
kPa
Hmdx Definition


Wind Chill Definition


Weather Definition


TIME
00:00 Legend Double Dagger -3.4 -7.2 75 31 50 6.4 101.05   -13 Snow
01:00 Legend Double Dagger -3.3 -7.3 74 31 46 16.1 101.08   -12 LegendNANA
02:00 Legend Double Dagger -3.5 -7.9 72 31 46 16.1 101.11   -13 LegendNANA
03:00 Legend Double Dagger -3.9 -8.2 72 32 41 16.1 101.12   -13 LegendNANA
04:00 Legend Double Dagger -3.6 -8.0 72 32 41 16.1 101.16   -12 LegendNANA
05:00 Legend Double Dagger -3.6 -8.0 72 33 34 16.1 101.15   -12 Snow
06:00 Legend Double Dagger -3.6 -8.1 71 32 34 16.1 101.12   -12 Snow
07:00 Legend Double Dagger -3.7 -7.9 73 32 28 16.1 101.06   -11 LegendNANA
08:00 Legend Double Dagger -3.5 -7.0 77 29 24 16.1 101.02   -10 LegendNANA
09:00 Legend Double Dagger -3.0 -6.6 76 30 26 16.1 100.96   -10 LegendNANA
10:00 Legend Double Dagger -2.5 -7.3 70 31 24 16.1 100.91   -9 LegendNANA
11:00 Legend Double Dagger -2.6 -5.6 80 29 26 16.1 100.84   -9 LegendNANA
12:00 Legend Double Dagger -2.5 -6.7 73 28 24 16.1 100.80   -9 LegendNANA
13:00 Legend Double Dagger -2.5 -7.0 71 27 18 16.1 100.75   -8 LegendNANA
14:00 Legend Double Dagger -2.7 -8.0 67 25 9 16.1 100.66   -6 LegendNANA
15:00 Legend Double Dagger -2.6 -8.2 66 22 17 16.1 100.58   -8 LegendNANA
16:00 Legend Double Dagger -2.7 -8.2 66 19 11 16.1 100.48   -7 LegendNANA
17:00 Legend Double Dagger -2.6 -7.8 68 16 15 12.9 100.40   -8 LegendNANA
18:00 Legend Double Dagger -2.5 -7.9 67 16 18 16.1 100.33   -8 LegendNANA
19:00 Legend Double Dagger -3.3 -5.9 82 19 15 9.7 100.29   -8 Snow
20:00 Legend Double Dagger -4.0 -4.8 94 19 11 2.0 100.23   -8 Snow
21:00 Legend Double Dagger -3.7 -4.7 93 17 15 6.4 100.17   -9 Snow
22:00 Legend Double Dagger -3.6 -5.2 89 11 18 8.1 100.11   -9 Snow
23:00 Legend Double Dagger -3.0 -4.4 90 11 32 4.8 100.06   -11 Snow

Notes on Data Quality.

Legend

  • E = Estimated
  • M = Missing
  • NA = Not Available
  • ‡ = Partner data that is not subject to review by the National Climate Archives
Date modified: